Location: Brno
(49.2000°N, 16.6330°E)
Time: 20:35:27
(UTC+02:00)

Vanguard 3 - Pass Details

Date: 04 August 2021
Orbit: 510 x 3260 km, 33.3° (Epoch: 20 September)

Event Time Altitude Azimuth Distance (km) Brightness Sun altitude
Rises 16:23:31 0° 203° (SSW) 4,780 11.6 38.0°
Reaches altitude 10° 16:27:06 10° 189° (S) 4,194 11.2 37.4°
Maximum altitude 16:36:05 25° 141° (SE) 3,979 10.7 36.0°
Drops below altitude 10° 16:48:22 10° 96° (E) 5,884 11.1 34.1°
Sets 16:54:40 0° 86° (E) 7,137 11.4 33.1°
